Location: Chandolas
(44.4033°N, 4.2533°E)
Time: 20:48:06
(UTC+00:00)

CZ-4C R/B - Pass Details

Date: 15 November 2019
Orbit: 650 x 1352 km, 63.4° (Epoch: 12 December)

Event Time Altitude Azimuth Distance (km) Brightness Sun altitude
Exits shadow 04:12:40 20° 346° (NNW) 1,997 4.0 -26.0°
Drops below altitude 10° 04:16:31 10° 23° (NNE) 2,757 5.1 -25.3°
Sets 04:20:09 0° 39° (NE) 3,856 6.1 -24.7°
